This demonstration page uses our WeatherBlox Daily Observations layout. Learn more.

Hourly Observations for November 30, 2020

Temp ( °F °C ) Dew Point ( °F °C ) Humidity (%) Winds ( mph kmh ) Pressure ( in mb ) Visibility ( mi km ) Precip ( " mm )
12:15 am 00:15 Clear 19 -7 9 -13 63 63 W 9 15 30.61 1036 10 16.0934 0 0
12:35 am 00:35 Clear 20 -6.8 9 -13 62 62 W 9 15 30.59 1036 10 16.0934 0 0
12:55 am 00:55 Clear 21 -6.2 9 -13 59 59 WNW 8 13 30.58 1035 10 16.0934 0 0
1:15 am 01:15 Clear 21 -6.3 8 -13.1 59 59 W 8 13 30.58 1036 10 16.0934 0 0
1:35 am 01:35 Clear 18 -7.7 8 -13.5 63 63 WNW 8 13 30.59 1036 10 16.0934 0 0
1:55 am 01:55 Clear 18 -7.9 8 -13.3 66 66 W 10 17 30.59 1036 10 16.0934 0 0
2:15 am 02:15 Clear 17 -8.5 8 -13.5 68 68 W 7 11 30.58 1036 10 16.0934 0 0
2:35 am 02:35 Clear 16 -9.1 7 -13.8 69 69 W 8 13 30.58 1035 10 16.0934 0 0
2:55 am 02:55 Clear 15 -9.3 7 -14 69 69 W 5 7 30.58 1036 10 16.0934 0 0
3:15 am 03:15 Clear 13 -10.8 5 -14.9 72 72 Calm 30.59 1036 10 16.0934 0 0
3:35 am 03:35 Clear 12 -11.2 6 -14.5 77 77 WSW 3 6 30.59 1036 10 16.0934 0 0
3:55 am 03:55 Clear 9 -13 2 -16.4 76 76 W 7 11 30.61 1037 10 16.0934 0 0
4:15 am 04:15 Clear 14 -10.2 6 -14.5 71 71 W 6 9 30.57 1035 10 16.0934 0 0
4:35 am 04:35 Clear 15 -9.5 6 -14.5 67 67 WSW 3 6 30.56 1035 10 16.0934 0 0
4:55 am 04:55 Clear 15 -9.5 6 -14.7 66 66 W 8 13 30.55 1035 10 16.0934 0 0
5:15 am 05:15 Clear 14 -10.1 5 -15.2 67 67 W 7 11 30.55 1034 10 16.0934 0 0
5:35 am 05:35 Clear 14 -10.1 5 -15 68 68 W 7 11 30.55 1034 10 16.0934 0 0
5:55 am 05:55 Clear 15 -9.5 5 -15.1 64 64 W 6 9 30.53 1034 10 16.0934 0 0
6:15 am 06:15 Clear 13 -10.4 4 -15.8 65 65 W 6 9 30.54 1034 10 16.0934 0 0
6:35 am 06:35 Clear 13 -10.5 4 -15.5 67 67 W 6 9 30.52 1034 10 16.0934 0 0
6:55 am 06:55 Clear 17 -8.6 5 -15.1 60 60 WSW 6 9 30.49 1033 10 16.0934 0 0
7:15 am 07:15 Clear 19 -7.5 5 -15 55 55 W 7 11 30.47 1032 10 16.0934 0 0
7:35 am 07:35 Clear 19 -7.5 6 -14.5 58 58 W 5 7 30.47 1032 10 16.0934 0 0
7:55 am 07:55 Sunny 20 -6.9 6 -14.5 55 55 W 6 9 30.46 1032 10 16.0934 0 0
8:15 am 08:15 Sunny 19 -7 6 -14.3 56 56 Calm 30.47 1032 10 16.0934 0 0
8:35 am 08:35 Sunny 21 -6 8 -13.2 57 57 W 6 9 30.43 1031 10 16.0934 0 0
8:55 am 08:55 Sunny 22 -5.8 9 -12.9 58 58 W 7 11 30.42 1030 10 16.0934 0 0
9:15 am 09:15 Sunny 25 -4 10 -12 54 54 WSW 7 11 30.39 1029 10 16.0934 0 0
9:35 am 09:35 Sunny 28 -2 11 -11.4 49 49 WSW 3 6 30.38 1029 10 16.0934 0 0
9:55 am 09:55 Sunny 32 0 13 -10.7 45 45 WSW 5 7 30.35 1028 10 16.0934 0 0
10:15 am 10:15 Sunny 33 0.6 13 -10.3 44 44 WSW 7 11 30.33 1027 10 16.0934 0 0
10:35 am 10:35 Sunny 35 1.6 13 -10.6 40 40 SW 6 9 30.32 1027 10 16.0934 0 0
10:55 am 10:55 Sunny 37 2.8 12 -10.9 36 36 SW 7 11 30.3 1026 10 16.0934 0 0
11:15 am 11:15 Sunny 38 3.5 12 -11 34 34 SW 8 13 30.28 1025 10 16.0934 0 0
11:35 am 11:35 Sunny 40 4.7 11 -11.4 30 30 WSW 9 15 30.25 1024 10 16.0934 0 0
11:55 am 11:55 Sunny 40 4.7 11 -11.5 30 30 SW 10 17 30.23 1024 10 16.0934 0 0
12:15 pm 12:15 Sunny 42 5.5 12 -11.1 29 29 SW 15 24 30.2 1023 10 16.0934 0 0
12:35 pm 12:35 Sunny 43 6.2 11 -11.4 27 27 SW 12 19 30.19 1022 10 16.0934 0 0
12:55 pm 12:55 Sunny 45 7.1 12 -11 27 27 SSW 15 24 30.16 1021 10 16.0934 0 0
1:15 pm 13:15 Sunny 46 7.5 12 -11 26 26 SSW 16 26 30.15 1021 10 16.0934 0 0
1:35 pm 13:35 Sunny 47 8.3 12 -11 24 24 S 15 24 30.12 1020 10 16.0934 0 0
1:55 pm 13:55 Sunny 47 8.4 13 -10.8 25 25 S 15 24 30.1 1019 10 16.0934 0 0
2:15 pm 14:15 Sunny 48 9.1 13 -10.6 24 24 S 12 19 30.08 1019 10 16.0934 0 0
2:35 pm 14:35 Sunny 50 9.9 14 -9.9 24 24 SSW 16 26 30.05 1018 10 16.0934 0 0
2:55 pm 14:55 Sunny 51 10.5 15 -9.3 24 24 SSW 14 22 30.04 1017 10 16.0934 0 0
3:15 pm 15:15 Sunny 51 10.6 16 -9 24 24 SSW 14 22 30.03 1017 10 16.0934 0 0
3:35 pm 15:35 Sunny 51 10.5 16 -8.8 25 25 S 13 20 30.02 1017 10 16.0934 0 0
3:55 pm 15:55 Sunny 50 10.1 16 -8.7 26 26 S 12 19 30.01 1016 10 16.0934 0 0
4:15 pm 16:15 Sunny 49 9.4 16 -8.8 27 27 S 12 19 30.02 1017 10 16.0934 0 0
4:35 pm 16:35 Sunny 47 8.3 16 -8.7 29 29 S 9 15 30.02 1017 10 16.0934 0 0
4:55 pm 16:55 Sunny 45 7 16 -8.8 32 32 S 8 13 30.03 1017 10 16.0934 0 0
5:15 pm 17:15 Clear 42 5.7 15 -9.2 34 34 SSE 6 9 30.04 1017 10 16.0934 0 0
5:35 pm 17:35 Clear 39 3.8 15 -9.7 37 37 SSE 7 11 30.06 1018 10 16.0934 0 0
5:55 pm 17:55 Clear 36 2.4 14 -9.8 40 40 SSE 7 11 30.07 1018 10 16.0934 0 0
6:15 pm 18:15 Clear 35 1.5 15 -9.6 44 44 SSE 7 11 30.07 1018 10 16.0934 0 0
6:35 pm 18:35 Clear 34 1.2 15 -9.3 46 46 SSE 6 9 30.07 1018 10 16.0934 0 0
6:55 pm 18:55 Clear 32 -0.1 15 -9.3 50 50 SSE 6 9 30.09 1019 10 16.0934 0 0
7:15 pm 19:15 Clear 29 -1.5 15 -9.6 54 54 SSE 5 7 30.09 1019 10 16.0934 0 0
7:35 pm 19:35 Clear 32 -0.2 15 -9.4 50 50 SSE 6 9 30.08 1019 10 16.0934 0 0
7:55 pm 19:55 Clear 30 -0.9 15 -9.5 53 53 SSE 6 9 30.08 1019 10 16.0934 0 0
8:15 pm 20:15 Clear 30 -1.1 15 -9.3 54 54 SSE 6 9 30.08 1018 10 16.0934 0 0
8:35 pm 20:35 Clear 29 -1.8 15 -9.6 56 56 SSE 6 9 30.08 1019 10 16.0934 0 0
8:55 pm 20:55 Clear 29 -1.8 15 -9.5 56 56 SSE 7 11 30.08 1019 10 16.0934 0 0
9:15 pm 21:15 Clear 29 -1.7 15 -9.4 56 56 SSE 5 7 30.07 1018 10 16.0934 0 0
9:35 pm 21:35 Clear 30 -1.3 16 -9 56 56 SSE 6 9 30.07 1018 10 16.0934 0 0
9:55 pm 21:55 Clear 29 -1.9 15 -9.2 58 58 SSE 8 13 30.05 1018 10 16.0934 0 0
10:15 pm 22:15 Clear 28 -2.5 16 -9 61 61 SSE 7 11 30.06 1018 10 16.0934 0 0
10:35 pm 22:35 Clear 28 -2.5 16 -9 61 61 SSE 8 13 30.06 1018 10 16.0934 0 0
10:55 pm 22:55 Clear 27 -2.6 16 -8.9 62 62 SSE 5 7 30.05 1018 10 16.0934 0 0
11:15 pm 23:15 Clear 27 -3 16 -9.1 63 63 SSE 6 9 30.05 1018 10 16.0934 0 0
11:35 pm 23:35 Clear 26 -3.6 15 -9.3 65 65 S 6 9 30.06 1018 10 16.0934 0 0
11:55 pm 23:55 Clear 27 -2.8 16 -8.8 64 64 S 6 9 30.05 1018 10 16.0934 0 0

Powered by AerisWeather